When you browse on this site, cookies collect data to enhance your experience and personalize the content and advertising you see.
Visit our Privacy Policy to learn more. By continuing to use the site, you agree to this use of cookies and data.
  • In Sweden
  • List of Countries
  • For 7 days
  • Water Temperature
  • Satellite Maps
  • Weather Map
  • Weather Widgets
  • user-avatar
    Login

    Hourly Weather Usvyaty

    Today, 20 July, Saturday

    Time Temperature Precipitation Wind Pressure Humidity
    00:00 +14°C° 0 mm 3 mps 744 mmHg 84%
    01:00 +14°C° 0 mm 3 mps 744 mmHg 88%
    02:00 +13°C° 0 mm 3 mps 744 mmHg 90%
    03:00 +13°C° 0 mm 3 mps 745 mmHg 90%
    04:00 +13°C° 0 mm 3 mps 745 mmHg 90%
    05:00 +13°C° 0 mm 3 mps 745 mmHg 90%
    06:00 +14°C° 0 mm 3 mps 746 mmHg 87%
    07:00 +14°C° 0 mm 3 mps 746 mmHg 84%
    08:00 +16°C° 0 mm 3 mps 746 mmHg 80%
    09:00 +18°C° 0 mm 3 mps 746 mmHg 72%
    10:00 +20°C° 0 mm 4 mps 747 mmHg 64%
    11:00 +22°C° 0 mm 4 mps 747 mmHg 55%
    12:00 +23°C° 0.1 mm 4 mps 747 mmHg 52%
    13:00 +25°C° 0.1 mm 4 mps 747 mmHg 50%
    14:00 +25°C° 0.1 mm 4 mps 747 mmHg 47%
    15:00 +25°C° 0 mm 4 mps 747 mmHg 49%
    16:00 +25°C° 0 mm 3 mps 748 mmHg 51%
    17:00 +24°C° 0 mm 3 mps 748 mmHg 53%
    18:00 +21°C° 0 mm 2 mps 748 mmHg 61%
    19:00 +19°C° 0 mm 2 mps 748 mmHg 69%
    20:00 +17°C° 0 mm 2 mps 748 mmHg 77%
    21:00 +16°C° 0 mm 2 mps 748 mmHg 80%
    22:00 +15°C° 0 mm 2 mps 748 mmHg 83%
    23:00 +14°C° 0 mm 2 mps 748 mmHg 85%

    Tomorrow, 21 July, Sunday

    Time Temperature Precipitation Wind Pressure Humidity
    00:00 +14°C° 0 mm 1 mps 748 mmHg 87%
    01:00 +14°C° 0 mm 1 mps 749 mmHg 89%
    02:00 +13°C° 0 mm 1 mps 749 mmHg 90%
    03:00 +13°C° 0 mm 1 mps 749 mmHg 91%
    04:00 +13°C° 0 mm 1 mps 749 mmHg 91%
    05:00 +13°C° 0 mm 1 mps 749 mmHg 91%
    06:00 +16°C° 0 mm 1 mps 749 mmHg 84%
    07:00 +19°C° 0 mm 1 mps 749 mmHg 77%
    08:00 +21°C° 0 mm 1 mps 749 mmHg 70%
    09:00 +23°C° 0 mm 1 mps 749 mmHg 64%
    10:00 +24°C° 0 mm 1 mps 749 mmHg 58%
    11:00 +25°C° 0 mm 2 mps 749 mmHg 53%
    12:00 +25°C° 0 mm 2 mps 749 mmHg 52%
    13:00 +26°C° 0 mm 2 mps 749 mmHg 50%
    14:00 +26°C° 0 mm 2 mps 749 mmHg 49%
    15:00 +25°C° 0.1 mm 2 mps 749 mmHg 56%
    16:00 +25°C° 0.1 mm 2 mps 749 mmHg 62%
    17:00 +24°C° 0.1 mm 1 mps 748 mmHg 68%
    18:00 +22°C° 0 mm 1 mps 748 mmHg 75%
    19:00 +21°C° 0 mm 1 mps 748 mmHg 82%
    20:00 +19°C° 0 mm 1 mps 748 mmHg 89%
    21:00 +18°C° 0 mm 1 mps 748 mmHg 91%
    22:00 +15°C° 0 mm 0 mps 748 mmHg 92%
    23:00 +14°C° 0 mm 0 mps 748 mmHg 93%

    Day after tomorrow, 22 July, Monday

    Time Temperature Precipitation Wind Pressure Humidity
    00:00 +14°C° 0 mm 0 mps 748 mmHg 93%
    01:00 +14°C° 0 mm 0 mps 748 mmHg 93%
    02:00 +14°C° 0 mm 1 mps 748 mmHg 94%
    03:00 +15°C° 0 mm 1 mps 748 mmHg 94%
    04:00 +15°C° 0 mm 1 mps 748 mmHg 94%
    05:00 +15°C° 0 mm 1 mps 748 mmHg 94%
    06:00 +18°C° 0 mm 1 mps 748 mmHg 87%
    07:00 +20°C° 0 mm 1 mps 747 mmHg 79%
    08:00 +22°C° 0 mm 1 mps 747 mmHg 72%
    09:00 +23°C° 0 mm 1 mps 747 mmHg 66%
    10:00 +25°C° 0 mm 1 mps 747 mmHg 60%
    11:00 +26°C° 0 mm 1 mps 747 mmHg 54%
    12:00 +27°C° 0 mm 1 mps 747 mmHg 51%
    13:00 +27°C° 0 mm 1 mps 747 mmHg 49%
    14:00 +27°C° 0 mm 1 mps 747 mmHg 46%
    15:00 +27°C° 0 mm 1 mps 747 mmHg 49%
    16:00 +27°C° 0 mm 1 mps 747 mmHg 52%
    17:00 +26°C° 0 mm 1 mps 746 mmHg 54%
    18:00 +24°C° 0 mm 1 mps 746 mmHg 64%
    19:00 +22°C° 0 mm 1 mps 746 mmHg 73%
    20:00 +20°C° 0 mm 1 mps 746 mmHg 82%
    21:00 +19°C° 0 mm 1 mps 746 mmHg 85%
    22:00 +18°C° 0 mm 1 mps 746 mmHg 88%
    23:00 +18°C° 0 mm 1 mps 746 mmHg 91%

    23 July, Tuesday

    Time Temperature Precipitation Wind Pressure Humidity
    00:00 +16°C° 0 mm 1 mps 746 mmHg 92%
    01:00 +16°C° 0 mm 1 mps 746 mmHg 93%
    02:00 +16°C° 0 mm 1 mps 746 mmHg 94%
    03:00 +16°C° 0 mm 1 mps 746 mmHg 94%
    04:00 +16°C° 0 mm 1 mps 746 mmHg 93%
    05:00 +16°C° 0 mm 2 mps 746 mmHg 92%
    06:00 +17°C° 0 mm 2 mps 746 mmHg 86%
    07:00 +19°C° 0 mm 2 mps 746 mmHg 80%
    08:00 +21°C° 0 mm 2 mps 747 mmHg 74%
    09:00 +23°C° 0 mm 2 mps 747 mmHg 66%
    10:00 +25°C° 0 mm 2 mps 747 mmHg 58%
    11:00 +26°C° 0 mm 2 mps 747 mmHg 51%
    12:00 +26°C° 0.1 mm 3 mps 747 mmHg 52%
    13:00 +26°C° 0.1 mm 3 mps 747 mmHg 53%
    14:00 +26°C° 0.1 mm 3 mps 747 mmHg 54%
    15:00 +26°C° 0 mm 3 mps 747 mmHg 56%
    16:00 +26°C° 0 mm 3 mps 747 mmHg 57%
    17:00 +25°C° 0 mm 3 mps 747 mmHg 59%
    18:00 +22°C° 0 mm 3 mps 747 mmHg 66%
    19:00 +21°C° 0 mm 3 mps 747 mmHg 73%
    20:00 +19°C° 0 mm 2 mps 747 mmHg 80%
    21:00 +18°C° 0 mm 2 mps 747 mmHg 81%
    22:00 +17°C° 0 mm 2 mps 748 mmHg 82%
    23:00 +16°C° 0 mm 2 mps 748 mmHg 83%

    24 July, Wednesday

    Time Temperature Precipitation Wind Pressure Humidity
    00:00 +15°C° 0 mm 2 mps 748 mmHg 85%
    01:00 +15°C° 0 mm 2 mps 748 mmHg 87%
    02:00 +14°C° 0 mm 2 mps 748 mmHg 89%
    03:00 +14°C° 0 mm 2 mps 748 mmHg 89%
    04:00 +14°C° 0 mm 2 mps 748 mmHg 89%
    05:00 +14°C° 0 mm 2 mps 748 mmHg 89%
    06:00 +16°C° 0 mm 2 mps 748 mmHg 82%
    07:00 +17°C° 0 mm 2 mps 748 mmHg 75%
    08:00 +19°C° 0 mm 2 mps 748 mmHg 69%
    09:00 +21°C° 0 mm 2 mps 748 mmHg 62%
    10:00 +24°C° 0 mm 2 mps 748 mmHg 56%
    11:00 +25°C° 0 mm 3 mps 748 mmHg 49%
    12:00 +26°C° 0 mm 3 mps 748 mmHg 48%
    13:00 +26°C° 0 mm 2 mps 749 mmHg 46%
    14:00 +27°C° 0 mm 2 mps 749 mmHg 45%
    15:00 +26°C° 0 mm 2 mps 749 mmHg 48%
    16:00 +26°C° 0 mm 2 mps 749 mmHg 52%
    17:00 +25°C° 0 mm 2 mps 749 mmHg 55%
    18:00 +23°C° 0 mm 2 mps 749 mmHg 62%
    19:00 +20°C° 0 mm 2 mps 749 mmHg 69%
    20:00 +19°C° 0 mm 1 mps 749 mmHg 76%
    21:00 +18°C° 0 mm 1 mps 749 mmHg 78%
    22:00 +18°C° 0 mm 1 mps 749 mmHg 80%
    23:00 +16°C° 0 mm 1 mps 750 mmHg 81%

    25 July, Thursday

    Time Temperature Precipitation Wind Pressure Humidity
    00:00 +15°C° 0 mm 1 mps 750 mmHg 82%
    01:00 +15°C° 0 mm 1 mps 750 mmHg 82%
    02:00 +14°C° 0 mm 0 mps 750 mmHg 83%
    03:00 +14°C° 0 mm 0 mps 750 mmHg 82%
    04:00 +14°C° 0 mm 0 mps 750 mmHg 82%
    05:00 +15°C° 0 mm 1 mps 750 mmHg 81%
    06:00 +18°C° 0 mm 1 mps 750 mmHg 74%
    07:00 +21°C° 0 mm 1 mps 751 mmHg 67%
    08:00 +23°C° 0 mm 1 mps 751 mmHg 60%
    09:00 +24°C° 0 mm 1 mps 751 mmHg 58%
    10:00 +26°C° 0 mm 1 mps 751 mmHg 55%
    11:00 +27°C° 0 mm 1 mps 751 mmHg 53%
    12:00 +27°C° 0.1 mm 1 mps 751 mmHg 55%
    13:00 +27°C° 0.1 mm 1 mps 751 mmHg 57%
    14:00 +28°C° 0.1 mm 1 mps 750 mmHg 59%
    15:00 +27°C° 0.4 mm 1 mps 750 mmHg 66%
    16:00 +26°C° 0.4 mm 2 mps 750 mmHg 74%
    17:00 +25°C° 0.4 mm 2 mps 750 mmHg 81%
    18:00 +24°C° 0.1 mm 2 mps 750 mmHg 85%
    19:00 +23°C° 0.1 mm 1 mps 750 mmHg 89%
    20:00 +21°C° 0.1 mm 1 mps 750 mmHg 93%
    21:00 +21°C° 0 mm 1 mps 750 mmHg 94%
    22:00 +19°C° 0 mm 2 mps 751 mmHg 95%
    23:00 +18°C° 0 mm 2 mps 751 mmHg 96%
    Show more